ZHANGZHENG-1 (CSES) (43194 NORAD) Tracking and Keplerian Element Data

This shows tracking and keplerian element data for the satellite.

Feedback or suggestion? Click here.




ElementValue
Catalog43194
NameZHANGZHENG-1 (CSES)
Epoch Orbit6773
Epoch Day113.84505723
Epoch Year2019
RAAN240.6694
Inclination97.384
Eccentricity0.0016405
Argument of Perigee137.5263
Mean Anonmoly222.7241
Mean Motion15.21046585
Decay Rate1.029E-05
L11 43194U 18015C 19113.84505723 .00001029 00000-0 49299-4 0 9994
L22 43194 97.3840 240.6694 0016405 137.5263 222.7241 15.21046585 67738

Live tracking and technical data element details for ZHANGZHENG-1 (CSES) (NORAD 43194). ZHANGZHENG-1 (CSES) can be tracked NOW for your location showing map with azimuth and elevation plus other details from your city location.

Track the satellite on the map from your city or location and see movement details for azimuth, elevation, latitude, longitude, range, height, and movement on the map or in text.







IsCatalogInMostPopularTable: catalog: 43194, numindb: 202
Update: records affected: 1



GetName: 43194 ZHANGZHENG-1 (CSES)

Hit Count: updated at: Wed, 24 Apr 2019 18:26:55 GMT